Terminal Aerodrome Forecast
Issued by NWS Memphis, TN

Home | Current Version | Previous Version | Text Only | Print | Product List | Glossary On
Versions: 1 2 3 4 5 6 7 8 9 10 11 12 13 14 15 16 17 18 19 20 21 22 23 24 25 26 27
246
FTUS44 KMEG 262330
TAFMEM
TAF
KMEM 262330Z 2700/2724 02010KT P6SM SCT100 BKN250
     FM270700 04005KT P6SM SCT250
     FM271500 01007KT P6SM SKC=

USA.gov is the U.S. government's official web portal to all federal, state and local government web resources and services.